Simultaneous Nadir Overpasses (SNOs) Predictions

Prediction of SNOs between NOAA-20 and AQUA Satellite Orbit:

Table of predicted SNOs for the next 14.0 days since TLE Epoch: 11/14/2025
Index Date (NOAA-20) Time (NOAA-20) Lat,Lon (NOAA-20) SZA (NOAA-20 ) Date (AQUA) Time (AQUA) Lat,Lon (AQUA) SZA (AQUA ) Distance(km) Time Diff (sec)
1 11/15/2025 14:07:49 81.24, -94.42 103.90 11/15/2025 14:07:53 81.23, -94.59 103.92 2.93 4
2 11/17/2025 22:48:04 -81.24, -44.49 75.51 11/17/2025 22:48:37 -81.25, -44.40 75.54 1.90 33
3 11/17/2025 23:38:49 81.24, 122.97 104.48 11/17/2025 23:37:55 81.23, 122.81 104.52 2.80 54
4 11/20/2025 07:28:20 81.24, 5.25 105.08 11/20/2025 07:29:20 81.24, 5.32 105.04 1.10 60
5 11/20/2025 08:19:04 -81.24, 172.84 74.96 11/20/2025 08:18:38 -81.23, 172.82 74.94 0.65 26
6 11/22/2025 16:59:19 81.24,-137.12 105.56 11/22/2025 16:59:19 81.23,-137.27 105.58 2.60 0
7 11/25/2025 01:39:33 -81.24, -87.34 73.93 11/25/2025 01:39:58 -81.24, -87.23 73.95 1.85 25
8 11/25/2025 02:30:17 81.23, 80.43 106.02 11/25/2025 02:29:15 81.23, 80.32 106.07 1.82 62
9 11/27/2025 10:19:48 81.24, -37.50 106.56 11/27/2025 10:20:36 81.24, -37.31 106.50 3.13 48



Historial Predications of SNOs between NOAA-20 and AQUA
